Showing default

HULIANWANG DIGUI-15, 62975

Orbit data source: Space-Track

HULIANWANG DIGUI-15, 62975 is a payload satellite owned by Zhongguo Xingwang (CN) in LEO that was launched on Tue, 11 Feb 2025 UTC via a CHANG ZHENG 8A launch vehicle from the Wenchang Satellite Launch Center (WSC). Payload-class satellites include a variety of spacecraft equipped with specific instruments for various scientific and technological missions. These include communications satellites like Starlink; space stations such as the ISS; scientific satellites like the Hubble; Earth observation satellites from companies like Planet Labs, Umbra, and HawkEye 360; GPS; miniature CubeSats for education and research; and military/defense satellites.

Loading next visibility...
Identifier
62975, 2025-030E
Orbit
LEO
Last TLE update
16 hours ago
Origin
Manufacturer
CAST
Mission
Operational Civil Communications
Bus & Motor
HWHD, Unknown motor
Mass
~800 kg wet, ~800 kg dry
Launch date (UTC)
2025-02-11 (5 months ago)
Launch vehicle
CHANG ZHENG 8A
Launch site
Wenchang Satellite Launch Center (WSC)
Object type
Payload
Rocket body
Debris
Shape & HBR
Box + 2 Pan, 10 m
Radar Cross Section
5.935 m², Large (>1 m²)

Expand to show TLE details & history

TLE from 16 hours ago
0 HULIANWANG DIGUI-15
1 62975U 25030E   25191.75432336 -.00000109  00000-0  31786-4 0  9990
2 62975  50.0043  20.3503 0000524 169.2723 190.8161 13.29325538 20444
Epoch: 2025-07-10T18:06Z
TLE epoch observation values (Epoch: 2025-07-10T18:06:13.538Z)
Latitude
0.00004°
Longitude
179.87786°
Altitude
1,150.202 km
Speed
7.279 km/s
True Right ascension
01h 21m 24s
True Declination
0° 00' 00"
Sunlit
Object was in daylight at epoch
Visualization orbit readout
Latitude
-40.70269°
Longitude
131.60211°
Altitude
1,162.756 km
Speed
7.272 km/s
Apparent Right ascension
20h 56m 40s
Apparent Declination
-84° 25' 41"
Sunlit
Object is in full shadow
Visualization observer readout
Local Sidereal Time
22:20:53
Azimuth
182.431° SSW
Elevation
-34.69°
Doppler factor
1
Orbital elements
Apogee altitude
1,150.408 km
Perigee altitude
1,149.619 km
Semi-major axis
7,528.15 km
Eccentricity
0.00005
Inclination
50.0043°
RAAN
20.3503°
Arg. of periapsis
169.2723°
True anomaly
Unknown
Mean anomaly
190.8161°
Eccentric anomaly
Unknown
Mean motion
3.32285 °/min
Orbital period
108.34 mins
BSTAR
0.000031786
Loading maneuver chart data...
Loading SW <> Apogee altitude chart data...
Loading historical data...
Loading historical data...
Loading historical data...
Loading historical data...
Loading historical data...
Loading historical data...
Loading historical data...

HULIANWANG DIGUI-15 Visibility forecast

Observer location: undefined°, undefined°

Span
Click to sort rows by Start time (UTC) header in descending order
Start Az.
Max El. time (UTC)
Max El. Az.
Max El.
End time (UTC)
End Az.
12 mins2025-07-11 14:04:04.595Z187.004° SSW2025-07-11 14:10:04.595Z127.94° SE27.437°2025-07-11 14:16:04.595Z71.663° E
13 mins2025-07-11 15:57:04.595Z241.294° WSW2025-07-11 16:03:04.595Z319.869° NNW44.513°2025-07-11 16:10:04.595Z54.92° ENE
12 mins2025-07-11 17:52:04.595Z285.758° WNW2025-07-11 17:58:04.595Z357.684° N32.942°2025-07-11 18:04:04.595Z57.05° ENE
12 mins2025-07-11 19:47:04.595Z307.699° NW2025-07-11 19:53:04.595Z20.138° NNE34.129°2025-07-11 19:59:04.595Z81.893° E
13 mins2025-07-11 21:41:04.595Z304.022° NW2025-07-11 21:47:04.595Z314.35° NW44.997°2025-07-11 21:54:04.595Z126.025° SE
9 mins2025-07-11 23:36:04.595Z274.272° WNW2025-07-11 23:40:04.595Z232.94° WSW23.396°2025-07-11 23:45:04.595Z184.399° SSW
|